User: anonymous   Login
Location: Unspecified
(0.0000°N, 0.0000°E)
Time: 06:20:28
(UTC+00:00)
Language:

AAUSAT 4 - Orbit

View from above orbital plane
View from above orbital plane
View from above satellite
View from above satellite

Ground track
Ground track

The orbit data is extracted from the following two-line orbital elements,

1 41460U 16025E   18116.72119184  .00001257  00000-0  69634-4 0  9996
2 41460  98.1338 177.0923 0161599 317.6495  41.2340 15.05626605109745
Epoch (UTC): 26 April 2018 17:18:30
Eccentricity: 0.0161599
inclination: 98.1338°
perigee height: 437 km
apogee height: 661 km
right ascension of ascending node: 177.0923°
argument of perigee: 317.6495°
revolutions per day: 15.05626605
mean anomaly at epoch: 41.2340°
orbit number at epoch: 10974

The dashed part of the orbit path shows where the satellite is in the earth's shadow,  

DLR